| time (UTC) | temp F | wind direction | speed knots | gust knots | rain 1hr in | rain 24hr in | rain mn in | humidity % | barometer mb |
| 20260503021543 | 55 | 160 | 2.6 | 5.2 | 0.00 | 0.00 | 0.00 | 53 | 1016.6 |
| 20260503020039 | 55 | 155 | 2.6 | 5.2 | 0.00 | 0.00 | 0.00 | 51 | 1016.7 |
| 20260503014550 | 56 | 193 | 2.6 | 5.2 | 0.00 | 0.00 | 0.00 | 51 | 1016.8 |
| 20260503013042 | 56 | 191 | 2.6 | 5.2 | 0.00 | 0.00 | 0.00 | 50 | 1017.0 |
| 20260503011538 | 56 | 196 | 3.5 | 6.1 | 0.00 | 0.00 | 0.00 | 49 | 1017.0 |
| 20260503010040 | 56 | 187 | 4.3 | 7.8 | 0.00 | 0.00 | 0.00 | 49 | 1017.0 |
| 20260503004610 | 57 | 152 | 2.6 | 4.3 | 0.00 | 0.00 | 0.00 | 48 | 1017.0 |
| 20260503003048 | 58 | 195 | 1.7 | 4.3 | 0.00 | 0.00 | 0.00 | 47 | 1017.2 |
| 20260503001549 | 58 | 158 | 2.6 | 4.3 | 0.00 | 0.00 | 0.00 | 46 | 1017.4 |
| 20260503000048 | 58 | 140 | 2.6 | 4.3 | 0.00 | 0.00 | 0.00 | 47 | 1017.4 |
| 20260502234551 | 58 | 168 | 2.6 | 3.5 | 0.00 | 0.00 | 0.00 | 47 | 1017.5 |
| 20260502233040 | 59 | 165 | 1.7 | 3.5 | 0.00 | 0.00 | 0.00 | 47 | 1017.6 |
| 20260502231544 | 58 | 164 | 2.6 | 3.5 | 0.00 | 0.00 | 0.00 | 48 | 1017.8 |
| 20260502230044 | 58 | 152 | 1.7 | 3.5 | 0.00 | 0.00 | 0.00 | 49 | 1017.8 |
| 20260502224541 | 58 | 141 | 1.7 | 3.5 | 0.00 | 0.00 | 0.00 | 49 | 1018.0 |
| 20260502223051 | 59 | 153 | 1.7 | 3.5 | 0.00 | 0.00 | 0.00 | 49 | 1018.0 |
| 20260502221537 | 59 | 174 | 1.7 | 2.6 | 0.00 | 0.00 | 0.00 | 48 | 1018.2 |
| 20260502220042 | 59 | 162 | 1.7 | 2.6 | 0.00 | 0.00 | 0.00 | 48 | 1018.2 |
| 20260502214606 | 59 | 156 | 1.7 | 2.6 | 0.00 | 0.00 | 0.00 | 48 | 1018.2 |
| 20260502213103 | 59 | 154 | 1.7 | 2.6 | 0.00 | 0.00 | 0.00 | 48 | 1018.3 |
| 20260502211541 | 60 | 156 | 1.7 | 3.5 | 0.00 | 0.00 | 0.00 | 47 | 1018.3 |
| 20260502210041 | 59 | 141 | 1.7 | 2.6 | 0.00 | 0.00 | 0.00 | 51 | 1018.4 |
| 20260502204541 | 60 | 167 | 0.9 | 1.7 | 0.00 | 0.00 | 0.00 | 49 | 1018.4 |
| 20260502203104 | 60 | 143 | 0.9 | 1.7 | 0.00 | 0.00 | 0.00 | 49 | 1018.4 |
| 20260502201544 | 60 | 137 | 0.0 | 1.7 | 0.00 | 0.00 | 0.00 | 52 | 1018.4 |
| 20260502200051 | 60 | 140 | 0.9 | 1.7 | 0.00 | 0.00 | 0.00 | 49 | 1018.5 |
| 20260502194542 | 61 | 147 | 0.9 | 1.7 | 0.00 | 0.00 | 0.00 | 49 | 1018.4 |
| 20260502193041 | 61 | 145 | 0.9 | 2.6 | 0.00 | 0.00 | 0.00 | 52 | 1018.5 |
| 20260502191545 | 61 | 140 | 0.9 | 1.7 | 0.00 | 0.00 | 0.00 | 50 | 1018.6 |
| 20260502190041 | 62 | 138 | 0.0 | 0.9 | 0.00 | 0.00 | 0.00 | 50 | 1018.6 |
| 20260502184542 | 65 | 139 | 0.9 | 1.7 | 0.00 | 0.00 | 0.00 | 43 | 1018.6 |
| 20260502183043 | 67 | 141 | 0.9 | 1.7 | 0.00 | 0.00 | 0.00 | 41 | 1018.6 |
| 20260502181543 | 69 | 193 | 0.9 | 0.9 | 0.00 | 0.00 | 0.00 | 38 | 1018.5 |
| 20260502163052 | 76 | 205 | 3.5 | 7.0 | 0.00 | 0.00 | 0.00 | 28 | 1019.2 |
| 20260502161554 | 76 | 213 | 3.5 | 7.0 | 0.00 | 0.00 | 0.00 | 28 | 1019.4 |
| 20260502151541 | 76 | 193 | 2.6 | 8.7 | 0.00 | 0.00 | 0.00 | 30 | 1020.3 |
| 20260502123106 | 76 | 115 | 3.5 | 7.8 | 0.00 | 0.00 | 0.00 | 28 | 1022.1 |
| 20260502121541 | 76 | 219 | 4.3 | 8.7 | 0.00 | 0.00 | 0.00 | 29 | 1022.3 |
| 20260502114538 | 75 | 205 | 4.3 | 9.6 | 0.00 | 0.00 | 0.00 | 28 | 1022.8 |
| 20260502113044 | 76 | 333 | 2.6 | 6.1 | 0.00 | 0.00 | 0.00 | 29 | 1022.8 |
| 20260502111543 | 76 | 191 | 4.3 | 7.8 | 0.00 | 0.00 | 0.00 | 28 | 1023.0 |
| 20260502110042 | 76 | 244 | 1.7 | 7.8 | 0.00 | 0.00 | 0.00 | 29 | 1023.2 |
| 20260502104541 | 75 | 297 | 2.6 | 7.8 | 0.00 | 0.00 | 0.00 | 30 | 1023.2 |
| 20260502103042 | 76 | 248 | 3.5 | 7.0 | 0.00 | 0.00 | 0.00 | 31 | 1023.4 |
| 20260502101540 | 74 | 241 | 0.9 | 9.6 | 0.00 | 0.00 | 0.00 | 31 | 1023.6 |
| 20260502071536 | 66 | 262 | 0.9 | 3.5 | 0.00 | 0.00 | 0.00 | 48 | 1024.5 |
| 20260502070100 | 65 | 257 | 0.9 | 2.6 | 0.00 | 0.00 | 0.00 | 49 | 1024.6 |
| 20260502064549 | 63 | 254 | 0.9 | 3.5 | 0.00 | 0.00 | 0.00 | 51 | 1024.5 |
| 20260502063041 | 62 | 258 | 1.7 | 3.5 | 0.00 | 0.00 | 0.00 | 51 | 1024.5 |
| 20260502061541 | 61 | 232 | 0.0 | 2.6 | 0.00 | 0.00 | 0.00 | 52 | 1024.6 |
| 20260502060045 | 59 | 229 | 1.7 | 3.5 | 0.00 | 0.00 | 0.00 | 54 | 1024.5 |
| 20260502054537 | 58 | 225 | 0.9 | 3.5 | 0.00 | 0.00 | 0.00 | 54 | 1024.4 |
| 20260502053045 | 57 | 259 | 0.9 | 2.6 | 0.00 | 0.00 | 0.00 | 56 | 1024.6 |
| 20260502051556 | 54 | 200 | 0.0 | 0.9 | 0.00 | 0.00 | 0.00 | 68 | 1024.5 |
| 20260502050046 | 49 | 0 | 0.0 | 0.9 | 0.00 | 0.00 | 0.00 | 81 | 1024.6 |
| 20260502044544 | 47 | 136 | 0.0 | 0.9 | 0.00 | 0.00 | 0.00 | 79 | 1024.6 |
| 20260502043045 | 46 | 136 | 0.0 | 0.9 | 0.00 | 0.00 | 0.00 | 79 | 1024.4 |
| 20260502041544 | 44 | 0 | 0.0 | 0.0 | 0.00 | 0.00 | 0.00 | 85 | 1024.5 |
| 20260502040042 | 42 | 0 | 0.0 | 0.9 | 0.00 | 0.00 | 0.00 | 89 | 1024.5 |
| 20260502034539 | 40 | 136 | 0.0 | 0.9 | 0.00 | 0.00 | 0.00 | 91 | 1024.5 |
| 20260502033041 | 40 | 0 | 0.0 | 0.9 | 0.00 | 0.00 | 0.00 | 89 | 1024.7 |
| 20260502031541 | 40 | 136 | 0.0 | 0.9 | 0.00 | 0.00 | 0.00 | 89 | 1024.7 |
| 20260502030045 | 40 | 0 | 0.0 | 0.9 | 0.00 | 0.00 | 0.00 | 90 | 1024.9 |
| 20260502024541 | 40 | 136 | 0.0 | 0.9 | 0.00 | 0.00 | 0.00 | 88 | 1024.8 |
| 20260502023042 | 41 | 0 | 0.0 | 0.9 | 0.00 | 0.00 | 0.00 | 88 | 1024.8 |